Weather History for KBJC - May, 2013

Change the Weather History Date:

Monday, May 20, 2013

  Actual Average (KDEN) Record (KDEN)
Temperature  
Mean Temperature 55 °F 59 °F  
Max Temperature 64 °F 73 °F 91 °F (2005)
Min Temperature 46 °F 44 °F 30 °F (1931)
Degree Days  
Heating Degree Days 10 7  
Month to date heating degree days 203  
Since 1 July heating degree days 5934  
Cooling Degree Days 0 1  
Month to date cooling degree days 5  
Year to date cooling degree days 6  
Growing Degree Days 5 (Base 50)    
Moisture  
Dew Point 37 °F    
Average Humidity 58    
Maximum Humidity 82    
Minimum Humidity 32    
Precipitation  
Precipitation 0.00 in 0.07 in 1.41 in (1891)
Month to date precipitation 1.33  
Year to date precipitation 4.74  
Snow  
Snow 0.00 in - - ()
Month to date snowfall  
Since 1 July snowfall  
Snow Depth -    
Sea Level Pressure  
Sea Level Pressure 29.94 in    
Wind  
Wind Speed 6 mph (NE)    
Max Wind Speed 14 mph    
Max Gust Speed 21 mph    
Visibility 10 miles    
Events Rain    
T = Trace of Precipitation, MM = Missing Value Source: NWS Daily Summary

Daily Weather History Graph

Daily Weather History Graph

Search for Another Location

Airport or City:

Trip Planner

Search our weather history database for the weather conditions in past years. The results will help you decide how hot, cold, wet, or windy it might be!

Date:

Astronomy

May. 20, 2013 Rise Set
Actual Time 5:40 AM MDT 8:13 PM MDT
Civil Twilight 5:09 AM MDT 8:44 PM MDT
Nautical Twilight 4:31 AM MDT 9:23 PM MDT
Astronomical Twilight 3:48 AM MDT 10:06 PM MDT
Moon 3:24 PM MDT (5/20) 2:36 AM MDT (5/20)
Length of Visible Light 15h 34m
Length of Day
14h 32m
Waxing Gibbous, 75% of the Moon is Illuminated
May 20
Waxing Gibbous
May 24
Full
May 31
Last Quarter
Jun 8
New
Jun 16
First Quarter

Hourly Weather History & Observations

Time (MDT) Temp. Windchill Dew Point Humidity Pressure Visibility Wind Dir Wind Speed Gust Speed Precip Events Conditions
12:15 AM 51.8 °F - 35.6 °F 54% 29.88 in 10.0 mi Calm Calm - N/A   Clear
12:35 AM 51.8 °F - 35.6 °F 54% 29.88 in 10.0 mi Calm Calm - N/A   Clear
12:55 AM 51.8 °F - 32.0 °F 47% 29.88 in 10.0 mi WNW 4.6 mph - N/A   Clear
1:15 AM 51.8 °F - 30.2 °F 44% 29.87 in 10.0 mi WNW 13.8 mph - N/A   Clear
1:34 AM 53.6 °F - 30.2 °F 41% 29.87 in 10.0 mi WNW 12.7 mph - N/A   Clear
2:15 AM 53.6 °F - 28.4 °F 38% 29.87 in 10.0 mi NNW 10.4 mph - N/A   Clear
2:34 AM 51.8 °F - 30.2 °F 44% 29.88 in 10.0 mi North 8.1 mph - N/A   Clear
2:55 AM 46.4 °F 42.9 °F 37.4 °F 71% 29.89 in 10.0 mi NE 6.9 mph - N/A   Clear
3:15 AM 48.2 °F - 35.6 °F 62% 29.90 in 10.0 mi ENE 9.2 mph - N/A   Clear
3:35 AM 50.0 °F - 33.8 °F 54% 29.91 in 10.0 mi ENE 8.1 mph - N/A   Mostly Cloudy
3:55 AM 50.0 °F - 35.6 °F 58% 29.91 in 10.0 mi ENE 8.1 mph - N/A   Overcast
4:15 AM 50.0 °F - 37.4 °F 62% 29.91 in 10.0 mi NE 9.2 mph - N/A   Overcast
4:35 AM 50.0 °F - 37.4 °F 62% 29.92 in 10.0 mi NNE 4.6 mph - N/A   Overcast
4:55 AM 50.0 °F - 39.2 °F 66% 29.92 in 10.0 mi NE 6.9 mph - N/A   Overcast
5:15 AM 48.2 °F - 41.0 °F 76% 29.92 in 10.0 mi NE 4.6 mph - N/A   Light Drizzle
5:34 AM 48.2 °F - 41.0 °F 76% 29.94 in 10.0 mi NNE 3.5 mph - N/A   Light Drizzle
5:55 AM 48.2 °F - 41.0 °F 76% 29.95 in 10.0 mi NNE 3.5 mph - N/A Rain Rain
6:52 AM 48.2 °F - 42.8 °F 82% 29.96 in 40.0 mi SE 3.5 mph - N/A Rain Light Rain
8:45 AM 51.8 °F - 44.6 °F 76% 29.95 in 30.0 mi South 10.4 mph 19.6 mph N/A   Mostly Cloudy
9:47 AM 55.4 °F - 42.8 °F 63% 29.93 in 30.0 mi SSE 12.7 mph 17.3 mph N/A   Mostly Cloudy
10:51 AM 59.0 °F - 35.6 °F 42% 29.92 in 50.0 mi SE 5.8 mph - N/A   Mostly Cloudy
11:50 AM 57.2 °F - 35.6 °F 44% 29.92 in 35.0 mi North 6.9 mph 20.7 mph N/A   Overcast
12:47 PM 60.8 °F - 37.4 °F 42% 29.93 in 45.0 mi NNE 9.2 mph - N/A   Overcast
1:58 PM 64.4 °F - 33.8 °F 32% 29.93 in 45.0 mi Calm Calm - N/A   Mostly Cloudy
2:47 PM 57.2 °F - 37.4 °F 48% 29.93 in 30.0 mi Variable 3.5 mph - N/A   Mostly Cloudy
3:50 PM 55.4 °F - 44.6 °F 67% 29.95 in 25.0 mi North 9.2 mph - N/A Rain Light Rain
4:48 PM 57.2 °F - 39.2 °F 51% 29.95 in 25.0 mi Variable 4.6 mph - N/A   Mostly Cloudy
5:46 PM 55.4 °F - 41.0 °F 58% 29.97 in 30.0 mi NE 10.4 mph - N/A   Mostly Cloudy
6:53 PM 57.2 °F - 37.4 °F 48% 29.99 in 30.0 mi North 13.8 mph - N/A   Mostly Cloudy
7:53 PM 55.4 °F - 39.2 °F 54% 30.01 in 30.0 mi Variable 4.6 mph - N/A   Mostly Cloudy
8:49 PM 53.6 °F - 39.2 °F 58% 30.03 in 30.0 mi ESE 5.8 mph - N/A   Mostly Cloudy
9:53 PM 51.8 °F - 39.2 °F 62% 30.05 in 20.0 mi East 5.8 mph - N/A   Mostly Cloudy
11:15 PM 50.0 °F - 39.2 °F 66% 30.05 in 10.0 mi South 6.9 mph - N/A   Mostly Cloudy
11:35 PM 50.0 °F - 39.2 °F 66% 30.05 in 10.0 mi South 5.8 mph - N/A   Mostly Cloudy
11:55 PM 48.2 °F - 41.0 °F 76% 30.05 in 10.0 mi South 3.5 mph - N/A   Mostly Cloudy